GW7221 Weather Reports


time (UTC)temp
C
wind
direction
speed
KPH
gust
KPH
rain 1hr
cm
rain 24hr
cm
rain mn
cm
humidity
%
barometer
mb
20260506154845 15 179 19.3 27.4 0.00 0.00 0.05 65 1028.8
20260506154345 15 157 11.3 16.1 0.00 0.00 0.05 66 1028.8
20260506153846 15 151 9.7 16.1 0.00 0.00 0.05 65 1028.8
20260506153346 15 175 8.0 12.9 0.00 0.00 0.05 65 1028.8
20260506152846 15 182 11.3 16.1 0.00 0.00 0.05 64 1028.8
20260506152346 15 160 14.5 14.5 0.00 0.00 0.05 65 1028.4
20260506151845 15 166 9.7 14.5 0.00 0.00 0.05 65 1028.8
20260506151346 15 143 11.3 17.7 0.00 0.00 0.05 62 1028.8
20260506150846 15 149 12.9 16.1 0.00 0.00 0.05 64 1028.4
20260506150346 15 163 14.5 17.7 0.00 0.00 0.05 62 1028.4
20260506145849 15 148 17.7 24.1 0.00 0.00 0.05 63 1028.4
20260506145346 15 147 17.7 24.1 0.00 0.00 0.05 65 1028.4
20260506144845 15 164 19.3 24.1 0.00 0.00 0.05 65 1028.4
20260506144347 15 161 14.5 24.1 0.00 0.00 0.05 66 1028.4
20260506143848 15 159 17.7 24.1 0.00 0.00 0.05 68 1028.4
20260506143346 15 159 12.9 22.5 0.00 0.00 0.05 69 1028.4
20260506142846 15 178 12.9 17.7 0.00 0.00 0.05 66 1028.4
20260506142350 15 180 14.5 20.9 0.00 0.00 0.05 66 1028.4
20260506141845 15 167 14.5 20.9 0.00 0.00 0.05 65 1028.4
20260506141345 15 135 14.5 24.1 0.00 0.00 0.05 66 1028.4
20260506140846 15 178 14.5 25.7 0.00 0.00 0.05 65 1028.4
20260506140346 15 173 12.9 22.5 0.00 0.00 0.05 66 1028.4
20260506135846 15 151 16.1 20.9 0.00 0.00 0.05 68 1028.4
20260506135345 15 146 12.9 22.5 0.00 0.00 0.05 67 1028.1
20260506134847 15 166 16.1 22.5 0.00 0.00 0.05 68 1028.4
20260506134345 15 154 14.5 22.5 0.00 0.00 0.05 67 1028.4
20260506133845 15 160 17.7 25.7 0.00 0.00 0.05 67 1028.1
20260506133351 15 187 14.5 22.5 0.00 0.00 0.05 70 1028.4
20260506132845 15 155 12.9 14.5 0.00 0.00 0.05 69 1028.4
20260506132347 15 184 14.5 17.7 0.00 0.00 0.05 67 1028.4
20260506131851 15 161 16.1 17.7 0.00 0.00 0.05 65 1028.4
20260506131345 16 147 11.3 17.7 0.00 0.00 0.05 64 1028.4
20260506130847 16 186 14.5 17.7 0.00 0.00 0.05 64 1028.4
20260506130346 16 204 16.1 25.7 0.00 0.00 0.05 64 1028.4
20260506125846 16 168 19.3 22.5 0.00 0.00 0.05 66 1028.1
20260506125345 16 146 14.5 22.5 0.00 0.00 0.05 69 1028.1
20260506124846 16 160 17.7 24.1 0.00 0.00 0.05 69 1028.1
20260506124345 16 186 16.1 22.5 0.00 0.00 0.05 69 1028.1
20260506123845 16 170 17.7 25.7 0.00 0.00 0.05 68 1028.1
20260506123346 16 163 14.5 24.1 0.00 0.00 0.05 67 1028.1
20260506122845 16 149 12.9 22.5 0.00 0.00 0.05 68 1028.1
20260506122345 16 121 12.9 17.7 0.00 0.00 0.05 69 1028.1
20260506121845 16 160 12.9 22.5 0.00 0.00 0.05 69 1027.8
20260506121346 16 154 14.5 25.7 0.00 0.00 0.05 71 1027.8
20260506120846 16 153 14.5 22.5 0.00 0.00 0.05 73 1027.8
20260506120346 16 156 14.5 22.5 0.00 0.00 0.05 74 1027.8
20260506115845 16 175 14.5 17.7 0.00 0.00 0.05 77 1027.8
20260506115346 16 151 12.9 25.7 0.00 0.00 0.05 80 1027.4
20260506114845 16 132 9.7 12.9 0.00 0.00 0.05 82 1027.8
20260506114345 16 161 8.0 16.1 0.00 0.00 0.05 81 1027.8
20260506113846 16 138 12.9 16.1 0.00 0.00 0.05 80 1027.8
20260506113346 16 151 17.7 24.1 0.00 0.00 0.05 80 1027.4
20260506112846 16 140 14.5 16.1 0.00 0.00 0.05 81 1027.4
20260506112346 16 181 16.1 25.7 0.00 0.00 0.05 81 1027.4
20260506111845 16 126 16.1 24.1 0.00 0.00 0.05 82 1027.4
20260506111346 16 162 11.3 22.5 0.00 0.00 0.05 82 1027.4
20260506110845 15 156 14.5 22.5 0.00 0.00 0.05 83 1027.4
20260506110345 16 166 19.3 24.1 0.00 0.00 0.05 82 1027.4
20260506105845 16 176 11.3 22.5 0.00 0.00 0.05 81 1027.1
20260506105345 16 126 16.1 20.9 0.00 0.00 0.05 82 1027.1
20260506104845 16 159 14.5 20.9 0.00 0.00 0.05 82 1027.1
20260506104345 16 153 11.3 16.1 0.00 0.00 0.05 82 1027.1
20260506103845 16 179 12.9 17.7 0.00 0.00 0.05 79 1027.1
20260506103345 16 154 11.3 17.7 0.00 0.00 0.05 82 1027.1
20260506102845 15 122 11.3 16.1 0.00 0.00 0.05 84 1027.1
20260506102346 15 161 4.8 8.0 0.00 0.00 0.05 83 1026.8
20260506101846 15 191 6.4 8.0 0.00 0.00 0.05 82 1026.8
20260506101345 15 189 4.8 8.0 0.00 0.00 0.05 81 1026.8
20260506100845 15 188 8.0 9.7 0.00 0.00 0.05 81 1026.8
20260506100347 15 170 4.8 8.0 0.00 0.00 0.05 81 1026.8
20260506095845 15 175 4.8 9.7 0.00 0.00 0.05 81 1026.8
20260506095346 15 166 4.8 9.7 0.00 0.00 0.05 81 1026.4
20260506094846 15 176 8.0 12.9 0.00 0.00 0.05 80 1026.8
20260506094346 15 174 9.7 14.5 0.00 0.00 0.05 80 1026.8
20260506093845 15 173 11.3 14.5 0.00 0.00 0.05 81 1026.8
20260506093345 15 177 12.9 17.7 0.00 0.00 0.05 79 1026.8
20260506092845 15 172 6.4 11.3 0.00 0.00 0.05 81 1026.4
20260506092345 15 185 8.0 9.7 0.00 0.00 0.05 82 1026.4
20260506091849 15 165 8.0 9.7 0.00 0.00 0.05 82 1026.1
20260506091345 15 186 3.2 9.7 0.00 0.00 0.05 82 1026.1
20260506090845 15 177 6.4 9.7 0.00 0.00 0.05 82 1026.4
20260506090346 15 186 4.8 8.0 0.00 0.00 0.05 82 1026.1
20260506085845 15 183 4.8 11.3 0.00 0.00 0.05 82 1026.1
20260506085346 15 185 6.4 11.3 0.00 0.00 0.05 81 1026.1
20260506084845 16 173 6.4 9.7 0.00 0.00 0.05 81 1026.1
20260506084345 15 168 8.0 11.3 0.00 0.00 0.05 82 1025.7
20260506083846 15 172 9.7 11.3 0.00 0.00 0.05 83 1025.7
20260506083345 16 176 4.8 12.9 0.00 0.00 0.05 81 1025.7
20260506082845 16 183 8.0 14.5 0.00 0.00 0.05 81 1025.7
20260506082345 16 198 9.7 14.5 0.00 0.00 0.05 81 1025.7
20260506081845 16 201 8.0 11.3 0.00 0.00 0.05 81 1025.7
20260506081345 16 182 8.0 12.9 0.00 0.00 0.05 80 1025.7
20260506080845 16 230 8.0 12.9 0.00 0.00 0.05 80 1025.4
20260506080345 16 190 9.7 16.1 0.00 0.00 0.05 81 1025.4
20260506073346 17 171 9.7 16.1 0.00 0.00 0.05 75 1025.1
20260506072847 17 162 11.3 16.1 0.00 0.00 0.05 74 1025.1
20260506072346 17 166 17.7 22.5 0.00 0.00 0.05 71 1025.1
20260506071845 17 176 16.1 22.5 0.00 0.00 0.05 76 1025.1
20260506071345 17 246 14.5 16.1 0.00 0.00 0.05 71 1025.1
20260506070845 17 159 11.3 17.7 0.00 0.00 0.05 70 1025.1
20260506070345 17 201 11.3 20.9 0.00 0.00 0.05 71 1025.1
20260506062345 18 163 12.9 20.9 0.00 0.00 0.05 70 1024.7
20260506061845 18 184 14.5 16.1 0.00 0.00 0.05 69 1024.7
20260506061345 18 187 12.9 20.9 0.00 0.00 0.05 71 1024.7
20260506060846 17 201 8.0 12.9 0.00 0.00 0.05 74 1024.7
20260506060345 17 169 8.0 11.3 0.00 0.00 0.05 73 1024.7
20260506051345 19 175 11.3 14.5 0.00 0.00 0.05 70 1024.4
20260506050846 19 187 8.0 16.1 0.00 0.00 0.05 71 1024.4
20260506050346 19 169 6.4 16.1 0.00 0.00 0.05 72 1024.4
20260506044845 18 243 9.7 16.1 0.00 0.00 0.05 72 1024.4
20260506044346 19 144 12.9 14.5 0.00 0.00 0.05 70 1024.4
20260506043845 18 215 9.7 14.5 0.00 0.00 0.05 71 1024.4
20260506043346 18 168 11.3 16.1 0.00 0.00 0.05 70 1024.4
20260506042846 18 184 11.3 14.5 0.00 0.00 0.05 71 1024.4
20260506042345 18 195 9.7 14.5 0.00 0.00 0.05 69 1024.4
20260506041845 18 182 9.7 17.7 0.00 0.00 0.05 69 1024.4
20260506041345 18 161 9.7 17.7 0.00 0.00 0.05 68 1024.4
20260506040418 18 201 8.0 12.9 0.00 0.00 0.05 72 1024.4
20260506035845 18 162 12.9 16.1 0.00 0.00 0.05 70 1024.4
20260506035346 18 213 9.7 14.5 0.00 0.00 0.05 71 1024.4
20260506034846 18 238 11.3 16.1 0.00 0.00 0.05 72 1024.4
20260506034345 17 207 12.9 20.9 0.00 0.00 0.05 75 1024.4
20260506033846 17 164 11.3 17.7 0.00 0.00 0.05 78 1024.7
20260506033346 17 192 9.7 20.9 0.00 0.00 0.05 81 1024.7
20260506032846 17 213 14.5 17.7 0.00 0.00 0.05 80 1024.4
20260506032346 18 169 9.7 24.1 0.00 0.00 0.05 77 1024.7
20260506031846 18 195 11.3 14.5 0.00 0.00 0.05 73 1024.7
20260506031345 18 206 16.1 17.7 0.00 0.00 0.05 71 1024.7
20260506030845 18 165 8.0 12.9 0.00 0.00 0.05 76 1025.1
20260506030346 18 181 11.3 16.1 0.00 0.00 0.05 74 1025.1
20260506025845 18 186 12.9 16.1 0.00 0.00 0.05 75 1025.1
20260506025345 18 165 8.0 17.7 0.00 0.00 0.05 75 1025.1
20260506024845 18 207 12.9 16.1 0.05 0.00 0.05 74 1025.1
20260506024346 18 202 14.5 20.9 0.05 0.00 0.05 73 1025.1
20260506023845 18 223 8.0 20.9 0.05 0.00 0.05 75 1025.4
20260506023345 18 179 12.9 22.5 0.05 0.00 0.05 74 1025.1
20260506022845 17 225 16.1 22.5 0.05 0.00 0.05 78 1025.1
20260506022346 17 241 11.3 17.7 0.05 0.00 0.05 79 1025.1
20260506021845 17 206 11.3 22.5 0.05 0.00 0.05 80 1025.1
20260506021345 17 234 11.3 16.1 0.05 0.00 0.05 82 1025.4
20260506020845 17 248 19.3 24.1 0.05 0.00 0.05 80 1025.4
20260506020345 17 206 8.0 17.7 0.05 0.00 0.05 84 1025.4
20260506015845 17 204 11.3 20.9 0.05 0.00 0.05 85 1025.4
20260506015345 17 237 9.7 14.5 0.03 0.00 0.05 84 1025.4
20260506014845 18 180 9.7 11.3 0.00 0.00 0.05 80 1025.4
20260506014345 18 258 4.8 11.3 0.00 0.00 0.00 74 1025.4
20260506013848 18 294 3.2 8.0 0.00 0.00 0.00 75 1025.1
20260506013345 18 200 6.4 11.3 0.00 0.00 0.00 73 1025.1
20260506012845 19 217 8.0 11.3 0.00 0.00 0.00 71 1025.4
20260506012345 20 273 6.4 9.7 0.00 0.00 0.00 68 1025.4
20260506011845 20 209 4.8 12.9 0.00 0.00 0.00 68 1025.1
20260506011353 20 319 4.8 9.7 0.00 0.00 0.00 68 1025.4
20260506010845 20 268 6.4 8.0 0.00 0.00 0.00 66 1025.1
20260506010345 20 243 3.2 4.8 0.00 0.00 0.00 69 1025.1
20260506005845 20 274 1.6 8.0 0.00 0.00 0.00 68 1025.1
20260506005345 19 290 4.8 4.8 0.00 0.00 0.00 70 1025.4
20260506004845 18 257 4.8 4.8 0.00 0.00 0.00 71 1025.1
20260506004346 18 268 4.8 4.8 0.00 0.00 0.00 73 1025.1
20260506003846 17 322 3.2 8.0 0.00 0.00 0.00 75 1025.1
20260506003345 17 315 4.8 4.8 0.00 0.00 0.00 74 1025.1
20260506002845 17 286 3.2 4.8 0.00 0.00 0.00 72 1025.4
20260506002345 17 273 3.2 4.8 0.00 0.00 0.00 73 1025.4
20260506001845 17 268 3.2 3.2 0.00 0.00 0.00 74 1025.4
20260506001345 16 245 1.6 3.2 0.00 0.00 0.00 76 1025.1
20260506000846 16 278 1.6 4.8 0.00 0.00 0.00 81 1025.4
20260506000346 16 269 4.8 9.7 0.00 0.00 0.00 81 1025.4
20260505235845 16 239 3.2 8.0 0.00 0.00 0.00 80 1025.4
20260505235345 17 220 6.4 12.9 0.00 0.00 0.00 77 1025.4
20260505234845 18 262 4.8 8.0 0.00 0.00 0.00 74 1025.1
20260505234345 17 226 3.2 4.8 0.00 0.00 0.00 77 1025.1
20260505233845 17 230 3.2 3.2 0.00 0.00 0.00 79 1025.4
20260505233346 17 292 3.2 4.8 0.00 0.00 0.00 77 1025.1
20260505232845 17 244 1.6 1.6 0.00 0.00 0.00 78 1025.1
20260505232345 17 225 3.2 3.2 0.00 0.00 0.00 78 1025.1
20260505231845 17 316 1.6 3.2 0.00 0.00 0.00 79 1025.1
20260505231345 17 321 3.2 4.8 0.00 0.00 0.00 79 1024.7
20260505230846 16 359 0.0 3.2 0.00 0.00 0.00 81 1024.7
20260505230346 16 11 1.6 1.6 0.00 0.00 0.00 84 1024.7
20260505225845 15 11 0.0 1.6 0.00 0.00 0.00 88 1024.7
20260505225347 15 11 0.0 1.6 0.00 0.00 0.00 90 1024.7
20260505224846 13 13 1.6 1.6 0.00 0.00 0.00 93 1024.7
20260505224346 13 4 0.0 1.6 0.00 0.00 0.00 93 1024.7
20260505223845 12 5 1.6 1.6 0.00 0.00 0.00 93 1024.4
20260505223346 12 6 0.0 0.0 0.00 0.00 0.00 93 1024.7
20260505222845 12 6 1.6 0.0 0.00 0.00 0.00 92 1024.4
20260505222346 12 6 0.0 0.0 0.00 0.00 0.00 92 1024.4
20260505221848 12 6 0.0 0.0 0.00 0.00 0.00 93 1024.7
20260505221345 12 7 1.6 1.6 0.00 0.00 0.00 93 1024.4
20260505220846 12 16 0.0 0.0 0.00 0.00 0.00 93 1024.4
20260505220345 11 16 0.0 0.0 0.00 0.00 0.00 92 1024.4
20260505215845 11 16 0.0 1.6 0.00 0.00 0.00 92 1024.4
20260505215351 12 17 0.0 0.0 0.00 0.00 0.00 92 1024.4
20260505214845 12 33 1.6 1.6 0.00 0.00 0.00 92 1024.4
20260505214345 12 33 0.0 0.0 0.00 0.00 0.00 92 1024.0
20260505213846 12 33 0.0 0.0 0.00 0.00 0.00 92 1024.0
20260505213346 12 33 0.0 0.0 0.00 0.00 0.00 92 1024.0
20260505212845 12 33 0.0 0.0 0.00 0.00 0.00 92 1024.0
20260505212346 12 33 0.0 0.0 0.00 0.00 0.00 92 1024.0
20260505211845 12 33 0.0 0.0 0.00 0.00 0.00 92 1024.0
20260505211345 12 34 0.0 0.0 0.00 0.00 0.00 91 1024.0
20260505210846 12 34 0.0 0.0 0.00 0.00 0.00 91 1023.7
20260505210345 13 340 0.0 0.0 0.00 0.00 0.00 91 1024.0
20260505205845 13 340 0.0 0.0 0.00 0.00 0.00 91 1024.0
20260505205345 13 340 0.0 0.0 0.00 0.00 0.00 91 1024.0
20260505204845 13 340 0.0 0.0 0.00 0.00 0.00 91 1024.0
20260505204345 13 340 1.6 1.6 0.00 0.00 0.00 91 1023.7
20260505203845 13 341 1.6 1.6 0.00 0.00 0.00 91 1023.7
20260505203347 13 276 0.0 0.0 0.00 0.00 0.00 92 1023.7
20260505202846 13 276 0.0 0.0 0.00 0.00 0.00 92 1023.7
20260505202345 13 276 0.0 0.0 0.00 0.00 0.00 92 1023.7
20260505201848 13 275 0.0 3.2 0.00 0.00 0.00 93 1023.7
20260505201346 13 303 0.0 0.0 0.00 0.00 0.00 93 1023.7
20260505200845 13 303 1.6 3.2 0.00 0.00 0.00 93 1023.7
20260505200346 13 272 0.0 0.0 0.00 0.00 0.00 93 1023.7
20260505195846 12 271 0.0 3.2 0.00 0.00 0.00 93 1023.7
20260505195345 12 283 1.6 1.6 0.00 0.00 0.00 93 1023.7
20260505194846 12 283 0.0 0.0 0.00 0.00 0.00 93 1024.0
20260505194345 12 282 0.0 1.6 0.00 0.00 0.00 93 1023.7
20260505193846 12 283 0.0 0.0 0.00 0.00 0.00 93 1023.7
20260505193346 12 282 0.0 0.0 0.00 0.00 0.00 93 1023.7
20260505192847 11 282 0.0 0.0 0.00 0.00 0.00 93 1023.7
20260505192346 11 282 0.0 0.0 0.00 0.00 0.00 92 1023.7
20260505191846 11 282 0.0 0.0 0.00 0.00 0.00 92 1023.7
20260505191346 11 282 0.0 0.0 0.00 0.00 0.00 93 1023.4
20260505190847 11 282 0.0 1.6 0.00 0.00 0.00 93 1023.7
20260505190347 11 282 0.0 0.0 0.00 0.00 0.00 92 1023.4
20260505185845 11 283 0.0 0.0 0.00 0.00 0.00 92 1023.4
20260505185346 10 283 0.0 0.0 0.00 0.00 0.00 91 1023.4
20260505184845 11 282 0.0 0.0 0.00 0.00 0.00 91 1023.4
20260505184345 11 282 0.0 0.0 0.00 0.00 0.00 91 1023.4
20260505183846 11 283 0.0 0.0 0.00 0.00 0.00 91 1023.4
20260505183345 11 283 0.0 0.0 0.00 0.00 0.00 90 1023.4
20260505182847 11 282 0.0 0.0 0.00 0.00 0.00 90 1023.7
20260505182345 11 282 0.0 0.0 0.00 0.00 0.00 90 1023.4
20260505181846 11 282 0.0 1.6 0.00 0.00 0.00 90 1023.4
20260505181348 12 283 0.0 1.6 0.00 0.00 0.00 90 1023.4
20260505180846 12 282 0.0 1.6 0.00 0.00 0.00 89 1023.7
20260505180345 12 290 0.0 0.0 0.00 0.00 0.00 89 1023.7
20260505175845 12 290 0.0 0.0 0.00 0.00 0.00 88 1023.7
20260505175345 12 291 0.0 0.0 0.00 0.00 0.00 88 1023.7
20260505174845 13 291 0.0 1.6 0.00 0.00 0.00 87 1023.7
20260505174345 13 290 0.0 1.6 0.00 0.00 0.00 87 1023.7
20260505173845 13 299 1.6 3.2 0.00 0.00 0.00 87 1023.7
20260505173345 13 264 1.6 1.6 0.00 0.00 0.00 86 1023.7
20260505172847 13 264 1.6 1.6 0.00 0.00 0.00 86 1023.7
20260505172345 14 264 0.0 0.0 0.00 0.00 0.00 86 1023.7
20260505171845 14 264 0.0 1.6 0.00 0.00 0.00 85 1023.7
20260505171346 14 264 0.0 0.0 0.00 0.00 0.00 85 1023.7
20260505170846 14 266 1.6 1.6 0.00 0.00 0.00 85 1024.0
20260505170345 14 273 1.6 1.6 0.00 0.00 0.00 84 1024.0
20260505165845 14 274 1.6 3.2 0.00 0.00 0.00 84 1024.0
20260505165345 14 267 3.2 8.0 0.00 0.00 0.00 85 1024.0
20260505164845 14 287 8.0 9.7 0.00 0.00 0.00 86 1024.4
20260505164346 14 263 4.8 8.0 0.00 0.00 0.00 87 1024.0
20260505163846 15 274 3.2 8.0 0.00 0.00 0.00 88 1024.0
20260505163346 15 278 3.2 9.7 0.00 0.00 0.00 88 1024.0
20260505162845 15 259 3.2 8.0 0.00 0.00 0.00 88 1024.0
20260505162345 14 269 4.8 4.8 0.00 0.00 0.00 87 1024.0
20260505161845 14 267 3.2 3.2 0.00 0.00 0.00 87 1024.4
20260505161347 14 305 0.0 0.0 0.00 0.00 0.00 87 1024.4
20260505160846 14 305 0.0 0.0 0.00 0.00 0.00 87 1024.4
20260505160346 13 305 0.0 0.0 0.00 0.00 0.00 87 1024.0